GW1622 Weather Reports


Display with metric or nautical units.
time (UTC)temp
F
wind
direction
speed
MPH
gust
MPH
rain 1hr
in
rain 24hr
in
rain mn
in
humidity
%
barometer
mb
20260831152019 71 60 1.0 4.0 0.00 0.00 0.00 82 1014.0
20260831151538 72 166 1.0 3.0 0.00 0.00 0.00 82 1013.9
20260831151021 72 123 0.0 5.0 0.00 0.00 0.00 83 1013.9
20260831150521 71 0 0.0 5.0 0.00 0.00 0.00 83 1014.0
20260831150040 71 163 1.0 4.0 0.00 0.00 0.00 83 1014.1
20260831145521 71 188 0.0 4.0 0.00 0.00 0.00 83 1014.0
20260831145020 71 0 0.0 2.0 0.00 0.00 0.00 84 1014.0
20260831144549 71 98 0.0 3.0 0.00 0.00 0.00 84 1014.0
20260831144018 71 142 0.0 3.0 0.00 0.00 0.00 84 1013.9
20260831143519 70 136 0.0 2.0 0.00 0.00 0.00 85 1014.0
20260831143042 70 119 0.0 2.0 0.00 0.00 0.00 85 1013.8
20260831142518 70 119 0.0 2.0 0.00 0.00 0.00 85 1013.9
20260831142021 70 119 0.0 2.0 0.00 0.00 0.00 86 1014.0
20260831141544 69 0 0.0 2.0 0.00 0.00 0.00 86 1013.7
20260831141019 69 119 1.0 2.0 0.00 0.00 0.00 86 1013.7
20260831140520 69 0 0.0 1.0 0.00 0.00 0.00 86 1013.6
20260831140041 69 0 0.0 1.0 0.00 0.00 0.00 86 1013.5
20260831135518 69 0 0.0 2.0 0.00 0.00 0.00 86 1013.4
20260831135021 69 119 0.0 2.0 0.00 0.00 0.00 86 1013.3
20260831134539 69 0 0.0 2.0 0.00 0.00 0.00 86 1013.2
20260831134019 68 0 0.0 2.0 0.00 0.00 0.00 86 1013.3
20260831133520 68 95 0.0 0.0 0.00 0.00 0.00 86 1013.3
20260831133042 68 0 0.0 0.0 0.00 0.00 0.00 86 1013.2
20260831132520 68 0 0.0 0.0 0.00 0.00 0.00 85 1013.1
20260831132018 69 0 0.0 0.0 0.00 0.00 0.00 85 1013.1
20260831131545 69 0 0.0 1.0 0.00 0.00 0.00 85 1012.9
20260831131021 69 0 0.0 1.0 0.00 0.00 0.00 85 1013.0
20260831130518 69 0 0.0 2.0 0.00 0.00 0.00 85 1012.9
20260831130050 69 0 0.0 2.0 0.00 0.00 0.00 85 1013.0
20260831125522 69 0 0.0 0.0 0.00 0.00 0.00 85 1013.2
20260831125021 69 0 0.0 1.0 0.00 0.00 0.00 85 1013.0
20260831124544 69 0 0.0 1.0 0.00 0.00 0.00 85 1013.0
20260831124021 69 0 0.0 1.0 0.00 0.00 0.00 85 1013.0
20260831123520 69 95 0.0 2.0 0.00 0.00 0.00 85 1012.9
20260831123043 69 0 0.0 2.0 0.00 0.00 0.00 85 1012.9
20260831122524 69 0 0.0 2.0 0.00 0.00 0.00 85 1012.9
20260831122023 69 0 0.0 0.0 0.00 0.00 0.00 85 1012.9
20260831121540 70 0 0.0 0.0 0.00 0.00 0.00 85 1013.0
20260831121023 70 0 0.0 0.0 0.00 0.00 0.00 85 1013.0
20260831120523 69 0 0.0 0.0 0.00 0.00 0.00 85 1013.0
20260831120045 70 0 0.0 1.0 0.00 0.00 0.00 85 1012.9
20260831115521 70 0 0.0 2.0 0.00 0.00 0.00 85 1012.9
20260831115017 69 95 0.0 2.0 0.00 0.00 0.00 85 1012.9
20260831114542 70 0 0.0 1.0 0.00 0.00 0.00 85 1012.9
20260831114020 70 0 0.0 1.0 0.00 0.00 0.00 86 1012.9
20260831113522 70 0 0.0 1.0 0.00 0.00 0.00 86 1013.0
20260831113045 70 0 0.0 2.0 0.00 0.00 0.00 86 1013.0
20260831112521 70 0 0.0 2.0 0.00 0.00 0.00 86 1013.0
20260831112018 70 0 0.0 1.0 0.00 0.00 0.00 86 1013.0
20260831111539 70 0 0.0 1.0 0.00 0.00 0.00 86 1012.9
20260831111020 70 0 0.0 1.0 0.00 0.00 0.00 86 1013.0
20260831110519 70 0 0.0 1.0 0.00 0.00 0.00 86 1013.0
20260831110044 69 150 0.0 1.0 0.00 0.00 0.00 86 1013.0
20260831105526 69 0 0.0 0.0 0.00 0.00 0.00 86 1013.0
20260831105022 70 0 0.0 1.0 0.00 0.00 0.00 86 1012.9
20260831104545 70 0 0.0 1.0 0.00 0.00 0.00 86 1012.9
20260831104021 70 150 0.0 1.0 0.00 0.00 0.00 86 1013.0
20260831103517 70 150 0.0 3.0 0.00 0.00 0.00 86 1013.0
20260831103042 70 0 0.0 4.0 0.00 0.00 0.00 87 1013.1
20260831102517 70 0 1.0 4.0 0.00 0.00 0.00 87 1013.1
20260831102018 70 0 0.0 0.0 0.00 0.00 0.00 87 1013.0
20260831101550 70 0 0.0 1.0 0.00 0.00 0.00 87 1013.0
20260831101019 70 0 0.0 1.0 0.00 0.00 0.00 87 1013.0
20260831100519 70 159 0.0 1.0 0.00 0.00 0.00 87 1013.0
20260831100039 70 0 0.0 2.0 0.00 0.00 0.00 88 1013.1
20260831095519 70 0 0.0 2.0 0.00 0.00 0.00 88 1013.1
20260831095021 70 0 0.0 1.0 0.00 0.00 0.00 88 1013.2
20260831094544 70 159 0.0 2.0 0.00 0.00 0.00 88 1013.1
20260831094018 70 0 0.0 3.0 0.00 0.00 0.00 88 1013.1
20260831093518 70 211 0.0 4.0 0.00 0.00 0.00 88 1013.1
20260831093041 70 159 1.0 4.0 0.00 0.00 0.00 89 1013.2
20260831092520 70 0 0.0 2.0 0.00 0.00 0.00 89 1013.2
20260831092020 70 0 0.0 2.0 0.00 0.00 0.00 89 1013.1
20260831091555 70 0 0.0 1.0 0.00 0.00 0.00 89 1013.1
20260831091028 70 0 0.0 0.0 0.00 0.00 0.00 90 1013.3
20260831090524 70 0 0.0 2.0 0.00 0.00 0.00 90 1013.1
20260831090041 70 0 0.0 2.0 0.00 0.00 0.00 90 1013.1
20260831085521 69 156 0.0 2.0 0.00 0.00 0.00 90 1013.1
20260831085019 69 0 0.0 3.0 0.00 0.00 0.00 90 1013.0
20260831084542 69 0 0.0 3.0 0.00 0.00 0.00 90 1013.1
20260831084020 69 0 0.0 0.0 0.00 0.00 0.00 90 1013.0
20260831083520 69 0 0.0 0.0 0.00 0.00 0.00 91 1013.0
20260831083042 69 0 0.0 0.0 0.00 0.00 0.00 91 1013.0
20260831082519 69 0 0.0 0.0 0.00 0.00 0.00 90 1013.0
20260831082021 69 0 0.0 1.0 0.00 0.00 0.00 90 1013.0
20260831081543 69 0 0.0 1.0 0.00 0.00 0.00 90 1013.0
20260831081021 69 0 0.0 1.0 0.00 0.00 0.00 90 1013.2
20260831080518 69 0 0.0 1.0 0.00 0.00 0.00 90 1013.2
20260831080100 69 0 0.0 0.0 0.00 0.00 0.00 90 1013.2
20260831075520 69 0 0.0 0.0 0.00 0.00 0.00 90 1013.2
20260831075019 69 0 0.0 0.0 0.00 0.00 0.00 90 1013.1
20260831074542 69 0 0.0 1.0 0.00 0.00 0.00 90 1013.1
20260831074024 69 0 0.0 1.0 0.00 0.00 0.00 90 1013.1
20260831073520 69 0 0.0 0.0 0.00 0.00 0.00 90 1013.2
20260831073108 69 0 0.0 1.0 0.00 0.00 0.00 90 1013.1
20260831072518 69 0 0.0 1.0 0.00 0.00 0.00 90 1013.2
20260831072025 70 0 0.0 2.0 0.00 0.00 0.00 90 1013.3
20260831071551 70 0 0.0 2.0 0.00 0.00 0.00 90 1013.3
20260831071025 70 126 0.0 2.0 0.00 0.00 0.00 91 1013.2
20260831070522 69 0 0.0 1.0 0.00 0.00 0.00 90 1013.2
20260831070042 69 0 0.0 1.0 0.00 0.00 0.00 90 1013.2
20260831065520 70 0 0.0 1.0 0.00 0.00 0.00 90 1013.2
20260831065020 69 0 0.0 1.0 0.00 0.00 0.00 91 1013.3
20260831064545 69 0 0.0 1.0 0.00 0.00 0.00 90 1013.1
20260831064020 69 0 0.0 1.0 0.00 0.00 0.00 90 1013.1
20260831063518 69 0 0.0 1.0 0.00 0.00 0.00 90 1013.1
20260831063044 69 0 0.0 0.0 0.00 0.00 0.00 90 1013.0
20260831062519 69 0 0.0 1.0 0.00 0.00 0.00 90 1013.1
20260831062023 69 0 0.0 1.0 0.00 0.00 0.00 90 1013.1
20260831061543 69 0 0.0 2.0 0.00 0.00 0.00 90 1013.1
20260831061024 69 125 0.0 2.0 0.00 0.00 0.00 90 1013.0
20260831060522 69 0 0.0 2.0 0.00 0.00 0.00 90 1013.0
20260831060049 69 0 0.0 0.0 0.00 0.00 0.00 90 1013.0
20260831055517 69 0 0.0 0.0 0.00 0.00 0.00 90 1013.0
20260831055023 69 0 0.0 0.0 0.00 0.00 0.00 90 1013.1
20260831054548 69 0 0.0 0.0 0.00 0.00 0.00 89 1013.1
20260831054025 69 0 0.0 0.0 0.00 0.00 0.00 89 1013.1
20260831053519 69 0 0.0 0.0 0.00 0.00 0.00 90 1013.1
20260831053045 69 0 0.0 0.0 0.00 0.00 0.00 89 1013.1
20260831052518 69 0 0.0 0.0 0.00 0.00 0.00 89 1013.1
20260831052019 69 0 0.0 0.0 0.00 0.00 0.00 89 1013.0
20260831051542 69 0 0.0 0.0 0.00 0.00 0.00 89 1013.1
20260831051018 69 0 0.0 1.0 0.00 0.00 0.00 89 1013.0
20260831050521 69 0 0.0 1.0 0.00 0.00 0.00 89 1013.0
20260831050045 69 0 0.0 1.0 0.00 0.00 0.00 89 1013.2
20260831045520 69 0 0.0 0.0 0.00 0.00 0.00 89 1013.0
20260831045020 70 0 0.0 0.0 0.00 0.00 0.00 89 1012.9
20260831044552 70 0 0.0 1.0 0.00 0.00 0.00 89 1012.8
20260831044020 69 0 0.0 1.0 0.00 0.00 0.00 89 1012.9
20260831043523 70 0 0.0 0.0 0.00 0.00 0.00 88 1012.9
20260831043042 70 0 0.0 0.0 0.00 0.00 0.00 89 1012.9
20260831042518 70 0 0.0 1.0 0.00 0.00 0.00 89 1012.7
20260831042017 70 0 0.0 1.0 0.00 0.00 0.00 89 1012.7
20260831041552 70 0 0.0 1.0 0.00 0.00 0.00 88 1012.7
20260831041026 70 0 0.0 1.0 0.00 0.00 0.00 88 1012.5
20260831040522 70 0 0.0 1.0 0.00 0.00 0.00 88 1012.3
20260831040044 71 0 0.0 0.0 0.00 0.00 0.00 88 1012.4
20260831035519 71 0 0.0 0.0 0.00 0.00 0.00 88 1012.5
20260831035018 71 0 0.0 0.0 0.00 0.00 0.00 88 1012.5
20260831034541 71 0 0.0 0.0 0.00 0.00 0.00 88 1012.4
20260831034018 71 0 0.0 1.0 0.00 0.00 0.00 88 1012.3
20260831033520 71 0 0.0 1.0 0.00 0.00 0.00 88 1012.1
20260831033044 71 0 0.0 1.0 0.00 0.00 0.00 88 1012.2
20260831032520 71 0 0.0 1.0 0.00 0.00 0.00 87 1012.1
20260831032019 71 0 0.0 1.0 0.00 0.00 0.00 87 1012.1
20260831031540 71 0 0.0 1.0 0.00 0.00 0.00 87 1011.8
20260831031024 71 0 0.0 1.0 0.00 0.00 0.00 87 1011.8
20260831030521 71 0 0.0 0.0 0.00 0.00 0.00 87 1011.8
20260831030042 71 0 0.0 0.0 0.00 0.00 0.00 87 1011.7
20260831025518 71 0 0.0 2.0 0.00 0.00 0.00 87 1011.7
20260831025026 72 0 0.0 2.0 0.00 0.00 0.00 87 1011.7
20260831024541 72 0 0.0 1.0 0.00 0.00 0.00 87 1011.8
20260831024018 72 0 0.0 1.0 0.00 0.00 0.00 86 1011.8
20260831023517 72 0 0.0 1.0 0.00 0.00 0.00 86 1011.9
20260831023039 72 0 0.0 1.0 0.00 0.00 0.00 87 1011.9
20260831022518 72 0 0.0 1.0 0.00 0.00 0.00 86 1011.8
20260831022020 72 0 0.0 1.0 0.00 0.00 0.00 86 1011.8
20260831021547 72 0 0.0 2.0 0.00 0.00 0.00 86 1011.6
20260831021020 72 0 0.0 3.0 0.00 0.00 0.00 86 1011.7
20260831020518 73 0 0.0 3.0 0.00 0.00 0.00 86 1011.7
20260831020041 73 130 0.0 2.0 0.00 0.00 0.00 86 1011.7
20260831015520 73 0 0.0 2.0 0.00 0.00 0.00 86 1011.6
20260831015027 73 0 0.0 2.0 0.00 0.00 0.00 86 1011.5
20260831014543 73 0 0.0 2.0 0.00 0.00 0.00 86 1011.5
20260831014022 73 0 0.0 2.0 0.00 0.00 0.00 86 1011.5
20260831013521 73 0 0.0 4.0 0.00 0.00 0.00 85 1011.5
20260831013050 73 0 0.0 4.0 0.00 0.00 0.00 85 1011.5
20260831012520 73 0 1.0 4.0 0.00 0.00 0.00 85 1011.5
20260831012019 73 0 0.0 3.0 0.00 0.00 0.00 85 1011.5
20260831011545 73 0 0.0 4.0 0.00 0.00 0.00 85 1011.5
20260831011019 74 0 0.0 4.0 0.00 0.00 0.00 85 1011.6
20260831010519 74 113 1.0 4.0 0.00 0.00 0.00 85 1011.6
20260831010053 74 86 0.0 3.0 0.00 0.00 0.00 84 1011.6
20260831005519 74 105 0.0 4.0 0.00 0.00 0.00 84 1011.6
20260831005027 74 146 0.0 5.0 0.00 0.00 0.00 84 1011.6
20260831004543 74 155 1.0 5.0 0.00 0.00 0.00 84 1011.6
20260831004019 74 126 1.0 7.0 0.00 0.00 0.00 84 1011.7
20260831003519 74 0 2.0 7.0 0.00 0.00 0.00 83 1011.7
20260831003045 74 159 1.0 4.0 0.00 0.00 0.00 83 1011.6
20260831002518 75 66 1.0 4.0 0.00 0.00 0.00 83 1011.6
20260831002018 75 0 1.0 4.0 0.00 0.00 0.00 83 1011.6
20260831001541 75 141 1.0 4.0 0.00 0.00 0.00 82 1011.6
20260831001019 75 51 1.0 3.0 0.00 0.00 0.00 82 1011.7
20260831000520 75 117 1.0 4.0 0.00 0.00 0.00 82 1011.7
20260831000040 75 221 0.0 6.0 0.00 0.00 0.00 82 1011.6
20260830235521 75 75 1.0 6.0 0.00 0.00 0.00 82 1011.7
20260830235018 76 0 0.0 7.0 0.00 0.00 0.00 81 1011.6
20260830234546 75 119 2.0 7.0 0.00 0.00 0.00 80 1011.6
20260830234019 76 130 2.0 4.0 0.00 0.00 0.00 80 1011.6
20260830233524 76 96 2.0 6.0 0.00 0.00 0.00 80 1011.6
20260830233041 76 349 2.0 6.0 0.00 0.00 0.00 79 1011.8
20260830232519 77 38 1.0 6.0 0.00 0.00 0.00 78 1011.6
20260830232017 78 0 0.0 8.0 0.00 0.00 0.00 78 1011.7
20260830231540 77 111 1.0 8.0 0.00 0.00 0.00 80 1011.8
20260830231020 77 348 1.0 5.0 0.00 0.00 0.00 80 1011.8
20260830230521 77 334 1.0 6.0 0.00 0.00 0.00 79 1011.9
20260830230042 76 191 1.0 6.0 0.00 0.00 0.00 80 1011.9
20260830225521 76 352 1.0 7.0 0.00 0.00 0.00 79 1012.0
20260830225020 77 0 1.0 7.0 0.00 0.00 0.00 78 1012.0
20260830224543 78 153 1.0 6.0 0.00 0.00 0.00 78 1011.9
20260830224018 78 28 1.0 9.0 0.00 0.00 0.00 78 1012.0
20260830223518 78 0 1.0 9.0 0.00 0.00 0.00 78 1012.0
20260830223042 78 67 3.0 9.0 0.00 0.00 0.00 76 1012.1
20260830222517 78 70 2.0 8.0 0.00 0.00 0.00 77 1012.2
20260830222021 79 119 1.0 7.0 0.00 0.00 0.00 75 1012.1
20260830221536 78 0 2.0 5.0 0.00 0.00 0.00 77 1012.2
20260830221018 79 0 1.0 5.0 0.00 0.00 0.00 76 1012.0
20260830220518 80 288 1.0 5.0 0.00 0.00 0.00 75 1012.1
20260830220045 79 88 2.0 6.0 0.00 0.00 0.00 75 1012.3
20260830215518 80 94 1.0 8.0 0.00 0.00 0.00 75 1012.2
20260830215018 78 19 2.0 9.0 0.00 0.00 0.00 77 1012.2
20260830214540 78 90 3.0 9.0 0.00 0.00 0.00 76 1012.2
20260830214017 79 103 1.0 6.0 0.00 0.00 0.00 77 1012.3
20260830213520 79 65 1.0 6.0 0.00 0.00 0.00 75 1012.3
20260830213041 80 12 2.0 6.0 0.00 0.00 0.00 74 1012.4
20260830212519 79 53 1.0 7.0 0.00 0.00 0.00 75 1012.5
20260830212020 79 51 2.0 7.0 0.00 0.00 0.00 76 1012.6
20260830211542 80 65 2.0 6.0 0.00 0.00 0.00 75 1012.8
20260830211021 79 96 2.0 7.0 0.00 0.00 0.00 75 1012.8
20260830210517 80 119 2.0 7.0 0.00 0.00 0.00 75 1012.7
20260830210041 79 186 1.0 7.0 0.00 0.00 0.00 75 1012.9
20260830205519 79 61 2.0 7.0 0.00 0.00 0.00 75 1013.0
20260830205019 79 135 2.0 6.0 0.00 0.00 0.00 76 1012.9
20260830204539 79 92 2.0 7.0 0.00 0.00 0.00 75 1012.9
20260830204018 80 74 1.0 10.0 0.00 0.00 0.00 75 1012.9
20260830203519 79 148 2.0 10.0 0.00 0.00 0.00 76 1013.0
20260830203039 80 81 2.0 6.0 0.00 0.00 0.00 74 1012.9
20260830202518 80 86 1.0 6.0 0.00 0.00 0.00 76 1012.9
20260830202018 80 94 1.0 7.0 0.00 0.00 0.00 76 1012.9
20260830201543 80 139 2.0 8.0 0.00 0.00 0.00 76 1012.9
20260830201022 79 117 1.0 8.0 0.00 0.00 0.00 76 1013.1
20260830200525 79 126 3.0 8.0 0.00 0.00 0.00 76 1013.0
20260830200038 79 134 2.0 8.0 0.00 0.00 0.00 76 1013.0
20260830195518 79 142 3.0 8.0 0.00 0.00 0.00 77 1012.9
20260830195017 79 117 3.0 8.0 0.00 0.00 0.00 76 1013.0
20260830194547 79 71 2.0 7.0 0.00 0.00 0.00 76 1013.0
20260830194024 79 111 2.0 7.0 0.00 0.00 0.00 77 1013.0
20260830193518 79 134 3.0 7.0 0.00 0.00 0.00 76 1013.1
20260830193043 79 196 3.0 9.0 0.00 0.00 0.00 76 1013.1
20260830192520 79 115 1.0 9.0 0.00 0.00 0.00 77 1013.1
20260830192020 79 63 3.0 8.0 0.00 0.00 0.00 77 1013.2
20260830191541 79 113 3.0 7.0 0.00 0.00 0.00 76 1013.3
20260830191020 80 104 2.0 8.0 0.00 0.00 0.00 76 1013.3
20260830190521 79 120 3.0 8.0 0.00 0.00 0.00 77 1013.3
20260830190041 79 97 2.0 8.0 0.00 0.00 0.00 77 1013.4
20260830185521 79 117 2.0 8.0 0.00 0.00 0.00 77 1013.4
20260830185021 79 127 2.0 8.0 0.00 0.00 0.00 77 1013.5
20260830184541 79 124 3.0 7.0 0.00 0.00 0.00 77 1013.6
20260830184018 79 107 3.0 7.0 0.00 0.00 0.00 77 1013.6
20260830183520 79 125 2.0 8.0 0.00 0.00 0.00 77 1013.5
20260830183040 78 148 2.0 8.0 0.00 0.00 0.00 78 1013.4
20260830182518 79 138 2.0 6.0 0.00 0.00 0.00 77 1013.5
20260830182021 79 31 1.0 7.0 0.00 0.00 0.00 79 1013.5
20260830181540 78 81 2.0 9.0 0.00 0.00 0.00 79 1013.6
20260830181019 78 164 3.0 9.0 0.00 0.00 0.00 79 1013.6
20260830180519 78 76 2.0 7.0 0.00 0.00 0.00 79 1013.8
20260830180039 78 106 2.0 8.0 0.00 0.00 0.00 79 1013.6
20260830175518 78 186 1.0 8.0 0.00 0.00 0.00 79 1013.7
20260830175020 77 207 2.0 7.0 0.00 0.00 0.00 80 1013.5
20260830174601 77 116 3.0 7.0 0.00 0.00 0.00 80 1013.5
20260830174020 77 78 2.0 7.0 0.00 0.00 0.00 80 1013.5
20260830173522 77 128 3.0 6.0 0.00 0.00 0.00 80 1013.4
20260830173042 77 146 2.0 6.0 0.00 0.00 0.00 80 1013.4
20260830172522 78 153 2.0 8.0 0.00 0.00 0.00 79 1013.4
20260830172019 77 157 3.0 8.0 0.00 0.00 0.00 80 1013.4
20260830171544 77 90 2.0 8.0 0.00 0.00 0.00 80 1013.3
20260830171019 77 142 2.0 8.0 0.00 0.00 0.00 81 1013.1
20260830170524 77 136 2.0 5.0 0.00 0.00 0.00 80 1013.1
20260830170039 77 0 2.0 5.0 0.00 0.00 0.00 80 1013.1
20260830165520 77 190 1.0 4.0 0.00 0.00 0.00 79 1013.0
20260830165017 77 84 1.0 4.0 0.00 0.00 0.00 80 1013.1
20260830164536 77 101 1.0 4.0 0.00 0.00 0.00 80 1013.1
20260830164023 76 67 1.0 4.0 0.00 0.00 0.00 81 1013.0
20260830163520 76 36 1.0 5.0 0.00 0.00 0.00 81 1013.0
20260830163053 76 132 2.0 7.0 0.00 0.00 0.00 81 1013.1
20260830162517 76 113 1.0 7.0 0.00 0.00 0.00 81 1013.0
20260830162020 76 112 1.0 5.0 0.00 0.00 0.00 80 1013.0
20260830161550 76 24 1.0 4.0 0.00 0.00 0.00 81 1013.1
20260830161021 76 67 1.0 4.0 0.00 0.00 0.00 80 1012.9
20260830160524 76 17 2.0 4.0 0.00 0.00 0.00 80 1012.9
20260830160041 76 152 0.0 3.0 0.00 0.00 0.00 82 1012.9
20260830155524 75 360 1.0 4.0 0.00 0.00 0.00 82 1013.0
20260830155022 75 0 1.0 4.0 0.00 0.00 0.00 83 1012.9
20260830154542 74 0 0.0 3.0 0.00 0.00 0.00 83 1012.9
20260830154017 74 172 0.0 3.0 0.00 0.00 0.00 84 1012.8
20260830153519 73 159 0.0 3.0 0.00 0.00 0.00 84 1012.9
20260830153042 73 88 0.0 3.0 0.00 0.00 0.00 85 1012.8
20260830152520 73 279 0.0 3.0 0.00 0.00 0.00 86 1012.8